EHI
0 0 0 0 0 0 0 0 0 0 0 0 0 0 0 0 1 4 7 8 8 7 7 9 15 20 21 19 18 16 14 10 7 5 3 1 0 0 1 2 3 3 2 1
0 0 0 0 0 0 0 0 0 1 1 0 0 0 0 1 1 3 5 7 7 8 9 12 16 22 23 21 19 16 14 13 11 8 5 3 1 2 3 3 3 4 3 3
0 0 0 0 0 0 0 0 1 2 2 1 1 0 1 2 2 3 4 5 6 9 12 16 19 23 24 23 21 18 17 16 15 13 10 8 6 6 6 5 4 5 4 4
0 0 0 0 0 0 0 1 2 2 2 2 1 1 1 2 2 3 3 4 5 10 15 18 20 22 23 24 23 21 21 20 18 17 16 14 11 10 8 6 4 4 4 4
0 0 0 0 0 0 0 1 1 1 1 1 1 0 1 1 1 1 2 4 6 10 14 16 17 19 22 24 25 24 23 22 21 20 20 19 15 11 8 5 3 2 3 4
0 0 0 0 0 0 0 0 0 0 0 0 0 0 0 0 0 0 2 5 7 10 13 15 14 14 18 22 24 23 21 21 22 22 22 20 15 10 6 4 3 2 3 5
0 0 0 0 0 0 0 0 0 0 0 0 0 0 0 0 1 3 5 7 8 10 14 16 14 12 14 18 21 21 21 21 22 22 20 17 12 8 5 4 3 4 5 7
0 0 0 0 0 0 0 0 0 0 0 0 0 0 0 0 2 5 6 7 8 10 13 16 15 13 15 18 19 20 20 21 22 22 18 15 11 8 6 5 4 5 7 7
0 0 0 0 0 0 0 0 0 0 0 0 0 0 0 0 1 3 4 7 10 10 11 14 16 17 17 18 19 20 19 19 20 20 18 16 14 11 9 8 8 8 8 7
0 0 0 0 0 0 0 0 0 0 0 0 0 0 0 0 0 1 4 9 12 12 12 13 16 18 17 17 19 19 18 16 15 15 16 16 15 13 12 12 12 12 10 8
0 0 0 0 0 0 0 0 0 0 0 0 0 0 1 2 2 3 6 10 12 12 12 12 15 16 16 17 19 18 16 14 12 12 13 14 13 12 12 11 11 11 10 9
0 0 0 0 0 0 0 0 0 0 0 0 0 1 3 5 6 6 7 8 8 9 12 14 15 16 14 15 17 16 14 12 12 12 14 13 12 11 9 7 7 7 7 7
0 0 0 0 0 0 0 0 0 0 0 0 0 1 4 7 9 8 6 5 6 9 12 15 16 17 16 15 15 13 11 10 11 13 14 14 12 10 7 5 6 6 6 6
0 0 0 0 0 0 0 0 0 0 0 0 1 2 5 10 10 8 5 5 7 10 12 12 14 15 16 16 14 11 9 10 10 11 13 14 13 9 7 5 6 6 7 7
0 0 0 0 0 0 0 0 0 0 0 1 2 4 7 10 11 9 7 8 9 9 9 9 10 12 15 15 14 11 10 10 10 11 12 13 12 10 8 8 8 7 6 7
0 0 0 0 0 0 0 0 0 0 0 2 5 6 7 8 9 9 10 10 10 9 8 7 9 12 14 14 13 12 11 10 9 11 12 12 12 11 9 9 9 6 5 6
0 0 0 0 0 0 0 0 0 0 0 2 5 7 6 6 6 7 9 11 10 10 11 10 10 13 14 14 14 14 11 8 8 10 12 13 13 13 12 11 9 6 4 4
0 0 0 0 0 0 0 0 1 1 1 2 5 6 6 6 4 5 8 9 10 12 13 11 10 12 14 15 16 15 10 7 8 11 13 15 15 15 14 13 10 7 4 4
0 0 0 0 0 0 0 0 1 2 1 3 5 6 6 6 5 5 7 9 11 13 12 10 9 12 14 17 18 16 12 9 10 12 15 16 16 16 15 13 11 9 6 4
0 0 0 0 0 0 0 0 1 2 2 2 4 6 7 7 6 7 9 11 14 16 15 11 11 14 16 18 18 17 15 14 14 14 16 17 16 15 13 11 10 10 8 6
0 0 0 0 0 0 0 0 1 1 1 2 3 6 8 7 7 10 14 17 21 22 19 16 16 17 18 19 18 15 15 15 14 14 14 14 14 12 11 10 9 9 8 8
0 0 0 0 0 0 0 0 0 0 1 1 2 5 8 9 10 14 18 22 24 24 21 19 19 19 19 19 17 15 14 13 12 12 11 10 10 9 9 9 8 8 7 7
0 0 0 0 0 0 0 0 0 0 0 1 2 4 9 11 13 15 19 22 23 21 20 20 20 19 19 19 17 15 12 11 10 9 8 7 7 7 7 7 7 7 6 6
0 0 0 1 1 1 0 0 0 0 1 1 3 5 9 12 13 15 18 20 21 20 18 19 19 19 19 18 16 13 10 7 7 7 6 6 6 6 6 6 6 6 6 6
0 0 1 2 2 2 1 1 0 0 1 3 6 8 10 12 13 15 17 19 19 17 15 16 17 17 16 14 11 9 6 4 3 3 3 4 4 4 4 4 3 3 3 3
0 1 2 2 2 2 2 2 1 0 1 5 9 10 10 11 12 14 15 16 16 14 12 13 14 15 12 10 7 5 3 2 1 1 1 1 2 3 3 3 2 1 1 1
Wind_Speed
2 2 5 8 8 7 5 4 6 7 3 3 3 4 6 6 6 7 7 8 9 8 7 7 9 10 9 8 7 6 6 5 4 3 2 2 1 0 0 1 1 2 2 2
3 5 10 6 4 5 5 5 7 6 2 3 3 2 3 5 7 9 10 10 9 7 5 7 8 9 9 8 8 7 7 6 5 3 3 2 2 1 1 1 1 2 2 2
7 8 6 5 6 4 6 6 6 4 2 3 4 1 1 3 2 4 7 8 9 10 9 8 8 9 9 9 9 8 7 6 5 4 3 2 1 1 1 0 1 1 1 1
6 8 7 7 7 5 6 7 6 3 2 1 3 2 4 4 2 3 6 7 8 8 8 8 9 9 9 9 8 7 7 6 6 5 5 4 3 2 2 1 1 1 1 1
7 5 6 8 8 6 7 5 4 3 2 1 0 3 4 2 4 6 7 9 9 8 9 9 9 9 9 8 7 6 6 5 5 5 5 4 3 2 1 1 0 1 1 1
9 6 5 7 7 5 2 3 4 4 4 0 3 4 4 4 7 7 5 5 7 7 7 7 6 6 6 6 6 5 6 5 5 5 5 5 4 3 2 1 1 1 1 1
7 7 6 4 4 4 2 4 3 5 4 4 2 3 5 6 5 6 6 5 6 6 6 6 6 5 5 6 6 5 5 5 5 6 5 4 5 4 4 3 2 2 1 1
4 7 6 4 6 5 4 7 7 4 4 3 1 2 5 4 3 3 4 4 5 6 6 7 7 6 5 5 6 6 6 5 5 5 5 4 4 3 2 3 2 2 2 2
6 7 6 5 4 6 3 3 7 7 2 1 2 2 4 2 1 2 2 3 5 6 7 6 6 6 5 5 5 6 6 5 5 5 5 4 3 3 3 3 2 2 2 2
7 4 6 5 2 2 5 4 4 5 3 2 2 3 4 3 4 3 4 5 5 5 6 6 6 6 5 5 5 4 4 4 4 4 4 4 3 3 3 3 2 2 2 1
5 4 5 3 1 4 0 2 4 4 5 6 3 6 7 9 8 7 6 6 7 6 6 5 4 4 5 5 5 4 3 2 2 2 3 3 3 3 2 2 2 2 2 1
3 5 2 5 5 2 3 4 6 5 2 3 4 7 4 6 6 7 6 5 5 6 6 6 5 5 4 4 4 4 5 4 3 3 3 3 2 2 2 2 2 2 2 1
3 6 2 6 7 5 1 0 3 6 5 3 3 5 1 3 5 5 6 5 5 6 6 5 5 4 3 4 4 4 4 5 4 3 3 2 2 2 2 3 2 2 2 1
5 4 6 7 7 4 2 2 1 5 4 3 5 5 2 3 4 4 4 5 6 7 7 6 4 4 4 4 4 4 4 4 4 3 3 3 3 3 3 3 2 2 2 2
5 2 2 4 4 3 1 2 2 2 6 7 6 5 6 6 7 6 5 6 6 7 7 6 5 3 3 3 3 4 3 3 3 4 4 4 3 3 2 2 2 1 1 2
4 2 2 3 2 1 1 2 2 2 3 4 5 2 3 5 5 6 6 7 7 7 8 7 6 5 4 4 3 3 3 3 3 4 3 3 3 2 2 2 1 1 1 1
2 2 2 3 4 4 3 3 2 3 2 5 5 6 5 7 8 9 8 7 7 8 8 8 7 6 5 5 5 5 4 3 3 3 3 2 3 3 3 2 1 2 2 1
4 2 2 0 3 1 7 3 4 5 1 2 4 5 7 8 6 5 6 7 6 6 6 6 6 5 4 4 4 4 3 3 3 3 2 2 2 2 2 1 2 2 2 2
5 6 3 2 1 3 5 3 1 4 2 1 5 5 5 5 6 2 1 3 5 5 5 5 5 5 4 4 4 4 3 3 3 2 2 2 2 2 2 2 2 2 1 2
3 5 4 3 2 3 4 6 1 7 2 3 4 6 6 6 4 2 1 3 4 3 4 4 4 4 5 4 5 5 3 2 2 2 2 2 2 2 2 2 2 1 1 2
3 3 3 3 3 4 5 5 4 4 4 3 2 4 4 4 5 4 3 3 4 5 5 5 5 4 4 4 5 4 2 2 2 1 1 1 1 2 2 1 1 1 1 0
2 2 1 3 2 4 5 3 4 4 3 1 2 3 4 4 5 5 4 4 6 5 5 5 5 4 3 4 5 4 2 1 1 1 1 0 0 1 1 1 0 0 1 0
1 4 4 4 5 5 1 3 4 4 3 2 3 4 7 6 5 5 4 4 4 4 4 4 5 4 2 2 4 3 1 1 1 1 1 0 0 0 1 1 1 0 0 1
4 2 3 2 1 1 2 3 3 3 3 2 4 6 7 7 5 4 3 3 4 3 3 3 5 4 2 2 2 3 2 2 2 1 0 0 0 0 0 0 1 1 1 1
3 2 2 1 1 3 4 2 3 3 4 4 3 4 6 7 4 4 4 3 3 3 2 3 4 3 2 2 2 2 2 3 2 1 0 0 0 0 0 1 1 2 3 3
2 2 3 4 4 3 3 1 2 4 4 4 4 3 3 5 5 4 3 2 3 3 3 3 3 3 2 2 2 1 2 3 3 1 1 1 1 0 0 1 2 3 2 2
Wind_Direction
271 112 231 228 213 218 229 251 277 277 238 147 163 161 171 162 155 161 165 168 174 182 183 169 165 157 150 150 152 152 149 156 148 135 137 139 146 169 156 185 181 199 213 181
349 261 241 228 233 242 236 262 278 292 272 135 139 138 156 178 183 177 172 173 178 175 173 167 162 158 158 161 160 157 160 164 162 160 156 152 155 176 179 192 187 201 191 175
220 244 252 242 244 242 252 226 236 246 16 60 96 40 241 245 189 166 176 177 176 173 176 170 163 164 163 165 167 167 168 165 163 152 126 113 86 49 40 285 240 229 184 173
249 251 256 262 255 222 250 239 219 210 119 241 153 178 262 241 238 194 189 186 182 175 170 168 166 165 171 176 171 165 166 165 163 153 147 152 163 183 213 213 237 271 222 194
253 248 245 257 254 219 224 237 205 192 141 83 103 136 264 230 213 216 204 193 185 175 172 174 176 175 173 171 170 168 162 162 161 162 162 163 172 189 184 142 229 287 289 245
248 250 233 241 261 230 211 34 22 44 77 27 236 152 256 227 212 211 209 198 176 164 164 164 169 165 159 157 158 160 158 164 165 166 168 168 169 167 156 172 202 246 268 279
287 283 261 241 277 301 63 82 17 352 9 259 238 135 240 248 208 189 184 187 170 154 151 148 149 155 156 159 159 158 168 177 177 170 175 175 173 171 176 188 198 198 209 240
236 276 261 237 212 219 223 150 167 201 222 260 339 194 250 252 205 163 155 164 154 151 154 152 155 156 158 158 156 160 174 182 180 173 176 174 170 176 190 195 187 189 199 215
198 247 266 255 232 184 205 216 175 148 164 151 258 262 297 6 83 143 151 145 147 153 152 150 149 151 156 159 163 170 170 179 183 179 171 169 174 179 188 190 184 190 199 204
173 230 276 277 326 312 166 164 93 110 151 227 265 239 234 220 217 195 160 148 145 151 146 148 151 155 156 161 163 155 158 175 190 184 181 179 188 192 190 180 184 192 203 202
165 174 291 337 237 240 247 98 113 120 152 157 212 256 218 195 192 173 160 148 150 148 141 149 148 150 149 146 147 143 134 148 176 193 193 186 192 197 187 188 197 200 207 192
161 134 240 266 264 215 171 181 147 144 205 155 175 256 250 180 162 154 153 148 153 145 139 138 131 127 137 150 162 159 150 164 192 197 186 192 196 185 183 200 205 199 204 205
119 111 71 340 337 352 22 261 146 136 126 149 171 254 292 137 133 147 154 153 150 141 132 126 119 123 146 158 163 163 170 178 183 169 164 175 188 185 203 221 218 203 201 203
94 108 156 190 219 228 273 296 133 115 135 178 204 211 199 159 140 144 157 150 139 143 141 131 127 137 160 169 165 170 182 182 171 161 163 174 195 193 203 216 214 208 198 204
76 100 207 219 225 192 221 237 187 151 171 172 198 186 203 184 166 165 157 146 140 145 145 142 145 160 166 158 155 161 171 179 170 164 173 189 197 193 194 204 213 220 211 216
56 69 16 334 312 327 333 288 221 186 144 150 149 196 207 156 137 141 144 146 154 159 160 162 162 162 168 169 167 161 173 179 159 167 186 189 180 187 199 207 195 209 242 255
60 86 56 297 314 21 316 272 170 121 138 152 173 204 162 139 146 160 159 153 166 168 170 172 172 175 177 180 178 172 177 172 160 172 181 183 184 195 209 211 207 227 235 233
143 112 128 281 28 230 246 264 114 112 108 137 144 154 154 156 157 159 162 162 168 165 164 172 171 169 172 169 160 160 153 151 152 163 179 187 183 199 208 194 216 232 223 221
155 144 128 125 185 267 300 320 142 126 35 69 129 138 134 114 80 52 153 151 165 164 161 165 167 162 156 153 146 131 125 131 141 163 188 198 191 197 200 207 220 219 221 247
53 108 123 139 162 223 267 305 237 100 26 337 117 131 135 112 102 245 197 136 128 128 133 137 135 128 134 140 129 122 133 136 165 193 202 208 192 187 203 209 206 214 216 236
7 33 124 164 186 245 273 312 49 98 233 293 125 140 137 142 171 179 139 119 109 111 112 115 117 116 131 136 125 127 139 180 206 195 184 196 202 193 199 197 202 203 215 239
182 151 188 144 156 248 301 42 103 195 219 110 99 116 118 121 122 122 127 119 106 102 112 118 114 111 112 125 125 130 163 210 162 124 127 130 235 204 139 141 231 195 157 155
180 188 178 171 202 235 268 131 161 156 126 129 132 134 125 118 118 124 130 122 113 116 124 125 123 116 104 115 125 130 173 153 111 83 78 119 141 186 176 165 182 208 162 197
316 29 84 61 307 324 52 77 75 93 106 125 141 136 126 129 134 129 133 128 125 129 133 126 124 120 125 130 126 140 148 134 119 121 232 243 161 263 304 232 188 192 209 212
274 15 72 47 309 15 7 28 79 79 85 89 94 115 123 125 133 137 128 123 123 121 118 125 134 139 158 154 141 158 157 137 130 145 203 259 279 219 241 270 237 226 228 209
270 177 154 212 226 179 248 307 90 99 105 109 94 77 105 124 130 119 117 128 129 126 118 119 132 143 164 164 160 190 182 154 149 167 192 213 251 243 221 316 336 337 302 271